TimeCDT,TemperatureF,Dew PointF,Humidity,Sea Level PressureIn,VisibilityMPH,Wind Direction,Wind SpeedMPH,Gust SpeedMPH,PrecipitationIn,Events,Conditions,WindDirDegrees,DateUTC
12:53 AM,82.9,55.9,39,29.89,10.0,SSE,12.7,-,N/A,,Clear,150,2012-08-05 05:53:00
1:53 AM,81.0,57.0,44,29.91,10.0,SE,6.9,-,N/A,,Clear,140,2012-08-05 06:53:00
2:53 AM,79.0,57.9,48,29.92,10.0,ESE,4.6,-,N/A,,Clear,110,2012-08-05 07:53:00
3:53 AM,77.0,57.9,52,29.92,10.0,East,4.6,-,N/A,,Clear,100,2012-08-05 08:53:00
4:53 AM,75.0,57.9,55,29.94,10.0,East,5.8,-,N/A,,Clear,90,2012-08-05 09:53:00
5:53 AM,75.0,59.0,57,29.95,10.0,East,4.6,-,N/A,,Clear,100,2012-08-05 10:53:00
6:53 AM,73.9,60.1,62,29.98,10.0,North,5.8,-,N/A,,Clear,10,2012-08-05 11:53:00
7:53 AM,73.9,60.1,62,30.01,10.0,NNE,4.6,-,N/A,,Clear,20,2012-08-05 12:53:00
8:53 AM,80.1,63.0,56,30.03,10.0,East,6.9,-,N/A,,Clear,90,2012-08-05 13:53:00
9:53 AM,82.0,64.0,54,30.04,10.0,East,8.1,-,N/A,,Clear,90,2012-08-05 14:53:00
10:53 AM,86.0,64.0,48,30.05,10.0,ENE,9.2,-,N/A,,Clear,60,2012-08-05 15:53:00
11:53 AM,89.1,62.1,40,30.05,10.0,Variable,6.9,-,N/A,,Scattered Clouds,0,2012-08-05 16:53:00
12:53 PM,90.0,60.1,37,30.04,10.0,ESE,9.2,17.3,N/A,,Partly Cloudy,120,2012-08-05 17:53:00
1:53 PM,93.9,59.0,31,30.02,10.0,East,13.8,20.7,N/A,,Scattered Clouds,80,2012-08-05 18:53:00
2:53 PM,96.1,57.9,28,29.99,10.0,ESE,13.8,21.9,N/A,,Scattered Clouds,110,2012-08-05 19:53:00
3:53 PM,96.1,55.9,26,29.97,10.0,ESE,8.1,18.4,N/A,,Partly Cloudy,110,2012-08-05 20:53:00
4:53 PM,96.1,55.9,26,29.95,10.0,ESE,15.0,-,N/A,,Partly Cloudy,110,2012-08-05 21:53:00
5:53 PM,97.0,55.9,25,29.94,10.0,SE,12.7,20.7,N/A,,Clear,130,2012-08-05 22:53:00
6:53 PM,96.1,55.9,26,29.93,10.0,SE,11.5,-,N/A,,Clear,130,2012-08-05 23:53:00
7:53 PM,95.0,55.9,27,29.93,10.0,ESE,11.5,-,N/A,,Clear,110,2012-08-06 00:53:00
8:53 PM,91.9,57.0,31,29.94,10.0,ESE,10.4,-,N/A,,Clear,120,2012-08-06 01:53:00
9:53 PM,89.1,55.9,32,29.95,10.0,East,5.8,-,N/A,,Clear,100,2012-08-06 02:53:00
10:53 PM,87.1,55.0,33,29.97,10.0,East,5.8,-,N/A,,Clear,100,2012-08-06 03:53:00
11:53 PM,84.0,55.9,38,29.99,10.0,ESE,6.9,-,N/A,,Clear,110,2012-08-06 04:53:00